RH
64 52 51 54 61 48 42 40 54 52 51 58 54 55 58 52 52 60 56 62 58 45
64 62 51 63 51 55 66 58 56 53 54 52 53 54 63 52 58 62 59 56 56 50
57 61 54 56 58 65 68 59 75 53 55 53 57 61 64 56 60 67 52 44 54 59
52 52 54 49 52 54 56 66 57 59 58 59 58 60 71 67 62 68 61 60 60 60
51 52 48 53 52 56 60 59 58 62 70 69 62 74 68 66 54 67 58 58 58 56
47 47 45 50 50 56 62 60 48 57 70 70 63 71 66 71 62 57 54 55 58 57
49 45 43 47 56 51 60 68 59 56 65 62 63 58 58 59 64 58 55 54 57 55
56 55 54 55 57 59 61 61 62 62 61 60 56 48 58 56 57 77 60 61 56 54
65 67 66 65 65 66 65 67 68 65 64 66 46 61 73 67 52 57 64 63 60 59
74 73 72 70 72 72 73 70 72 70 67 68 65 73 80 78 45 51 57 70 64 56
83 80 78 76 75 76 73 74 73 72 72 71 64 76 81 84 58 56 58 63 70 69
83 83 83 82 80 77 76 76 74 72 75 76 71 82 83 84 62 57 64 61 62 62
85 85 86 85 83 79 84 78 63 68 70 74 74 86 86 85 52 57 52 64 72 77
89 81 83 87 86 85 86 81 81 77 72 72 74 75 93 94 67 54 51 49 70 55
Wind_Speed
12 10 8 10 5 8 7 8 12 11 10 10 8 9 6 6 7 7 6 7 6 9
12 13 11 9 10 7 4 2 12 12 10 10 9 8 7 8 7 3 6 6 7 6
15 14 12 8 11 7 4 6 7 10 10 11 9 9 8 8 8 6 7 8 5 6
15 16 14 13 11 10 8 6 6 8 10 10 10 10 9 9 6 8 8 8 7 6
15 15 17 14 14 13 11 9 11 11 10 9 11 9 10 11 9 11 9 10 8 9
16 16 17 18 16 14 13 12 13 12 11 11 13 11 10 10 11 11 9 10 9 9
16 17 17 15 15 16 14 13 13 12 12 12 13 12 12 11 10 10 11 9 10 9
14 13 13 13 13 14 14 14 13 13 12 12 11 10 11 10 11 10 11 11 10 12
13 13 13 12 13 14 14 14 15 14 14 14 13 13 13 9 10 10 11 10 11 11
12 14 14 13 13 13 14 13 14 15 14 14 13 8 9 10 12 11 10 10 10 12
12 12 13 14 14 13 13 14 14 15 15 14 13 12 12 12 12 11 12 12 13 14
11 15 12 13 14 13 13 13 14 14 15 16 15 14 15 11 13 13 13 12 13 12
21 13 13 12 14 13 12 13 13 15 15 16 15 14 16 15 12 12 11 12 13 13
8 7 12 12 12 13 13 13 14 15 14 15 16 14 17 19 13 12 11 11 9 12
Wind_Direction
205 216 218 200 210 221 202 192 156 185 201 220 199 216 202 221 227 209 206 245 274 304
198 219 213 195 217 246 243 196 153 182 214 207 215 209 209 233 195 220 230 198 234 252
195 204 220 207 208 228 216 218 251 178 200 213 201 226 210 248 182 213 238 243 169 266
200 197 213 208 206 227 223 218 243 195 219 212 215 209 215 235 278 220 224 269 188 213
201 204 199 217 200 204 223 206 203 219 227 229 226 236 208 224 222 231 219 236 241 226
205 206 213 199 216 201 203 215 220 211 216 225 227 217 228 223 243 257 234 234 228 233
214 212 213 215 201 209 203 211 215 225 209 216 229 229 222 226 223 245 251 234 246 237
215 220 216 211 208 205 200 204 215 217 224 223 215 232 235 229 235 207 244 257 230 235
213 218 218 215 209 203 211 207 204 217 217 212 228 206 191 223 237 234 233 245 248 248
226 214 215 215 214 212 207 213 213 207 214 218 230 223 184 202 234 248 256 222 235 257
248 228 212 211 212 213 212 213 216 216 212 216 222 216 207 192 233 242 248 259 230 236
227 240 222 212 211 210 213 216 217 216 216 215 222 204 204 196 234 237 240 245 252 252
249 216 223 212 215 212 212 217 221 220 219 220 221 199 194 195 226 228 232 226 237 247
274 275 248 223 216 217 212 223 214 224 215 216 215 215 191 188 212 227 225 232 205 230